This is the latest recevied weather packets stored in our database for station/object VK3AFQ-13. If no packets are shown the sender has not sent any weather packets the latest 10 day(s).
| Time | Temp. | Humidity | Pressure | Rain* | Wind** | Luminosity | Snow |
|---|---|---|---|---|---|---|---|
| 1778053564 | 15.56° C | 70% | 1018.9 hPa | - | - | - | - |
| 1778052664 | 15.56° C | 69% | 1018.7 hPa | - | - | - | - |
| 1778051764 | 16.11° C | 68% | 1018.8 hPa | - | - | - | - |
| 1778050862 | 16.11° C | 66% | 1018.8 hPa | - | - | - | - |
| 1778049964 | 16.11° C | 67% | 1019 hPa | - | - | - | - |
| 1778049064 | 16.67° C | 65% | 1019.2 hPa | - | - | - | - |
| 1778048164 | 16.67° C | 64% | 1019.3 hPa | - | - | - | - |
| 1778047262 | 16.67° C | 63% | 1019.5 hPa | - | - | - | - |
| 1778046364 | 16.67° C | 62% | 1019.6 hPa | - | - | - | - |
| 1778045464 | 16.67° C | 62% | 1019.8 hPa | - | - | - | - |
| 1778044563 | 16.67° C | 62% | 1019.8 hPa | - | - | - | - |
| 1778043662 | 16.11° C | 67% | 1019.9 hPa | - | - | - | - |
| 1778042764 | 16.11° C | 67% | 1019.9 hPa | - | - | - | - |
| 1778041864 | 16.11° C | 64% | 1019.9 hPa | - | - | - | - |
| 1778040964 | 16.11° C | 64% | 1020 hPa | - | - | - | - |
| 1778040061 | 16.11° C | 64% | 1020.2 hPa | - | - | - | - |
| 1778039164 | 16.11° C | 65% | 1020.3 hPa | - | - | - | - |
| 1778038263 | 16.11° C | 66% | 1020.4 hPa | - | - | - | - |
| 1778037363 | 15.56° C | 68% | 1020.5 hPa | - | - | - | - |
| 1778036461 | 16.11° C | 66% | 1020.6 hPa | - | - | - | - |
| 1778035564 | 16.11° C | 66% | 1020.9 hPa | - | - | - | - |
| 1778034664 | 16.11° C | 69% | 1021.2 hPa | - | - | - | - |
| 1778033764 | 16.11° C | 69% | 1021.4 hPa | - | - | - | - |
| 1778032862 | 16.11° C | 72% | 1021.5 hPa | - | - | - | - |
| 1778031964 | 16.11° C | 72% | 1021.8 hPa | - | - | - | - |
* Rain since midnight (hover to see other rain measurements)
** Current wind speed in m/s (hover to see current wind gust speed)